• En España
  • Lista de países
  • Para 7 días
  • Temperatura del agua
  • Mapa Satelital
  • El tiempo en el mapa
  • Informadores
  • user-avatar
    Iniciar sesión

    Tiempo cada hora Varna

    Hoy, 15 Noviembre, Jueves

    Tiempo Temperatura Precipitaciones Viento Presión Humedad
    00:00 +8°C° 0.1 mm 3 mps 751 mmHg 74%
    01:00 +7°C° 0.1 mm 3 mps 751 mmHg 77%
    02:00 +5°C° 0 mm 4 mps 751 mmHg 80%
    03:00 +5°C° 0.4 mm 5 mps 751 mmHg 81%
    04:00 +5°C° 0.4 mm 5 mps 751 mmHg 82%
    05:00 +4°C° 0.4 mm 6 mps 750 mmHg 83%
    06:00 +4°C° 0.7 mm 6 mps 751 mmHg 83%
    07:00 +4°C° 0.7 mm 6 mps 751 mmHg 83%
    08:00 +4°C° 0.7 mm 6 mps 751 mmHg 83%
    09:00 +4°C° 0.2 mm 6 mps 751 mmHg 80%
    10:00 +5°C° 0.2 mm 6 mps 751 mmHg 77%
    11:00 +6°C° 0.2 mm 7 mps 751 mmHg 74%
    12:00 +7°C° 0 mm 6 mps 751 mmHg 72%
    13:00 +8°C° 0 mm 6 mps 751 mmHg 71%
    14:00 +8°C° 0 mm 6 mps 751 mmHg 69%
    15:00 +8°C° 0.1 mm 7 mps 751 mmHg 72%
    16:00 +6°C° 0.1 mm 7 mps 751 mmHg 75%
    17:00 +6°C° 0.1 mm 7 mps 751 mmHg 78%
    18:00 +5°C° 0 mm 7 mps 751 mmHg 78%
    19:00 +5°C° 0 mm 7 mps 751 mmHg 79%
    20:00 +5°C° 0 mm 7 mps 751 mmHg 79%
    21:00 +4°C° 0 mm 7 mps 752 mmHg 80%
    22:00 +4°C° 0 mm 7 mps 752 mmHg 80%
    23:00 +3°C° 0 mm 6 mps 752 mmHg 81%

    Mañana, 16 Noviembre, Viernes

    Tiempo Temperatura Precipitaciones Viento Presión Humedad
    00:00 +3°C° 0 mm 7 mps 752 mmHg 82%
    01:00 +2°C° 0 mm 7 mps 752 mmHg 83%
    02:00 +2°C° 0 mm 7 mps 752 mmHg 85%
    03:00 0°C° 0 mm 7 mps 752 mmHg 86%
    04:00 0°C° 0 mm 7 mps 752 mmHg 87%
    05:00 0°C° 0 mm 7 mps 752 mmHg 88%
    06:00 0°C° 0 mm 7 mps 753 mmHg 87%
    07:00 0°C° 0 mm 7 mps 753 mmHg 86%
    08:00 0°C° 0 mm 7 mps 753 mmHg 85%
    09:00 0°C° 0 mm 7 mps 753 mmHg 80%
    10:00 +2°C° 0 mm 7 mps 754 mmHg 75%
    11:00 +3°C° 0 mm 7 mps 754 mmHg 71%
    12:00 +3°C° 0 mm 7 mps 754 mmHg 71%
    13:00 +2°C° 0 mm 8 mps 754 mmHg 70%
    14:00 +1°C° 0 mm 8 mps 754 mmHg 70%
    15:00 +1°C° 0 mm 8 mps 754 mmHg 72%
    16:00 0°C° 0 mm 7 mps 754 mmHg 74%
    17:00 -1°C° 0 mm 7 mps 755 mmHg 76%
    18:00 -1°C° 0 mm 7 mps 755 mmHg 77%
    19:00 -1°C° 0 mm 7 mps 755 mmHg 78%
    20:00 -1°C° 0 mm 7 mps 755 mmHg 79%
    21:00 -1°C° 0 mm 7 mps 755 mmHg 80%
    22:00 -2°C° 0 mm 7 mps 755 mmHg 81%
    23:00 -2°C° 0 mm 7 mps 755 mmHg 82%

    Pasado mañana, 17 Noviembre, Sábado

    Tiempo Temperatura Precipitaciones Viento Presión Humedad
    00:00 -2°C° 0.1 mm 7 mps 755 mmHg 83%
    01:00 -2°C° 0.1 mm 7 mps 755 mmHg 84%
    02:00 -2°C° 0.1 mm 7 mps 755 mmHg 85%
    03:00 -2°C° 0.3 mm 7 mps 755 mmHg 85%
    04:00 -2°C° 0.3 mm 7 mps 755 mmHg 86%
    05:00 -2°C° 0.3 mm 7 mps 755 mmHg 87%
    06:00 -2°C° 0.5 mm 7 mps 755 mmHg 88%
    07:00 -1°C° 0.5 mm 7 mps 756 mmHg 88%
    08:00 -1°C° 0.5 mm 8 mps 756 mmHg 89%
    09:00 -1°C° 0.4 mm 8 mps 756 mmHg 88%
    10:00 -1°C° 0.4 mm 8 mps 756 mmHg 88%
    11:00 0°C° 0.4 mm 8 mps 756 mmHg 88%
    12:00 0°C° 0.1 mm 8 mps 756 mmHg 86%
    13:00 0°C° 0.1 mm 8 mps 756 mmHg 84%
    14:00 +1°C° 0.1 mm 8 mps 756 mmHg 82%
    15:00 0°C° 0.1 mm 8 mps 756 mmHg 81%
    16:00 0°C° 0.1 mm 8 mps 756 mmHg 80%
    17:00 0°C° 0.1 mm 8 mps 756 mmHg 80%
    18:00 -1°C° 0 mm 7 mps 756 mmHg 79%
    19:00 -1°C° 0 mm 7 mps 756 mmHg 78%
    20:00 -2°C° 0 mm 7 mps 756 mmHg 77%
    21:00 -2°C° 0 mm 7 mps 756 mmHg 77%
    22:00 -3°C° 0 mm 7 mps 756 mmHg 77%
    23:00 -3°C° 0 mm 7 mps 755 mmHg 76%

    18 Noviembre, Domingo

    Tiempo Temperatura Precipitaciones Viento Presión Humedad
    00:00 -3°C° 0 mm 6 mps 755 mmHg 76%
    01:00 -3°C° 0 mm 6 mps 755 mmHg 76%
    02:00 -3°C° 0 mm 6 mps 755 mmHg 76%
    03:00 -4°C° 0 mm 6 mps 755 mmHg 77%
    04:00 -4°C° 0 mm 6 mps 754 mmHg 79%
    05:00 -4°C° 0 mm 6 mps 754 mmHg 81%
    06:00 -4°C° 0 mm 6 mps 754 mmHg 80%
    07:00 -4°C° 0 mm 5 mps 754 mmHg 79%
    08:00 -4°C° 0 mm 5 mps 754 mmHg 79%
    09:00 -2°C° 0 mm 5 mps 754 mmHg 74%
    10:00 0°C° 0 mm 5 mps 754 mmHg 69%
    11:00 +1°C° 0 mm 4 mps 754 mmHg 64%
    12:00 +3°C° 0 mm 4 mps 753 mmHg 62%
    13:00 +3°C° 0 mm 4 mps 753 mmHg 60%
    14:00 +4°C° 0 mm 4 mps 752 mmHg 58%
    15:00 +3°C° 0 mm 4 mps 752 mmHg 60%
    16:00 +3°C° 0 mm 4 mps 751 mmHg 61%
    17:00 +2°C° 0 mm 3 mps 751 mmHg 63%
    18:00 +2°C° 0 mm 3 mps 750 mmHg 63%
    19:00 +2°C° 0 mm 3 mps 750 mmHg 62%
    20:00 +2°C° 0 mm 3 mps 750 mmHg 61%
    21:00 +1°C° 0 mm 3 mps 750 mmHg 61%
    22:00 +1°C° 0 mm 3 mps 749 mmHg 60%
    23:00 +1°C° 0 mm 3 mps 749 mmHg 60%

    19 Noviembre, Lunes

    Tiempo Temperatura Precipitaciones Viento Presión Humedad
    00:00 +1°C° 0 mm 3 mps 749 mmHg 59%
    01:00 +1°C° 0 mm 3 mps 748 mmHg 59%
    02:00 +1°C° 0 mm 3 mps 748 mmHg 59%
    03:00 +1°C° 0.1 mm 3 mps 748 mmHg 60%
    04:00 +1°C° 0.1 mm 3 mps 747 mmHg 61%
    05:00 +1°C° 0.1 mm 3 mps 747 mmHg 61%
    06:00 +1°C° 0.2 mm 3 mps 747 mmHg 64%
    07:00 +1°C° 0.2 mm 3 mps 747 mmHg 67%
    08:00 +2°C° 0.2 mm 3 mps 747 mmHg 69%
    09:00 +3°C° 0.1 mm 4 mps 747 mmHg 72%
    10:00 +4°C° 0.1 mm 4 mps 747 mmHg 74%
    11:00 +6°C° 0.1 mm 4 mps 747 mmHg 76%
    12:00 +6°C° 0.1 mm 4 mps 747 mmHg 78%
    13:00 +7°C° 0.1 mm 4 mps 747 mmHg 79%
    14:00 +7°C° 0.1 mm 4 mps 747 mmHg 80%
    15:00 +7°C° 0.1 mm 4 mps 747 mmHg 83%
    16:00 +7°C° 0.1 mm 4 mps 747 mmHg 86%
    17:00 +7°C° 0.1 mm 4 mps 747 mmHg 89%
    18:00 +7°C° 0.1 mm 5 mps 747 mmHg 89%
    19:00 +7°C° 0.1 mm 5 mps 747 mmHg 89%
    20:00 +7°C° 0.1 mm 5 mps 747 mmHg 89%
    21:00 +7°C° 0 mm 5 mps 747 mmHg 88%
    22:00 +7°C° 0 mm 5 mps 747 mmHg 87%
    23:00 +7°C° 0 mm 4 mps 747 mmHg 87%

    20 Noviembre, Martes

    Tiempo Temperatura Precipitaciones Viento Presión Humedad
    00:00 +7°C° 0 mm 4 mps 747 mmHg 88%
    01:00 +6°C° 0 mm 4 mps 748 mmHg 89%
    02:00 +7°C° 0 mm 3 mps 748 mmHg 90%
    03:00 +7°C° 0 mm 3 mps 748 mmHg 90%
    04:00 +7°C° 0 mm 3 mps 748 mmHg 90%
    05:00 +7°C° 0 mm 4 mps 748 mmHg 89%
    06:00 +7°C° 0 mm 4 mps 748 mmHg 90%
    07:00 +7°C° 0 mm 4 mps 748 mmHg 90%
    08:00 +7°C° 0 mm 4 mps 748 mmHg 90%
    09:00 +8°C° 0 mm 5 mps 748 mmHg 87%
    10:00 +9°C° 0 mm 5 mps 748 mmHg 84%
    11:00 +10°C° 0 mm 6 mps 748 mmHg 81%
    12:00 +10°C° 0.1 mm 6 mps 748 mmHg 82%
    13:00 +10°C° 0.1 mm 6 mps 747 mmHg 84%
    14:00 +10°C° 0.1 mm 6 mps 747 mmHg 86%
    15:00 +10°C° 0.1 mm 6 mps 747 mmHg 88%
    16:00 +10°C° 0.1 mm 6 mps 747 mmHg 90%
    17:00 +10°C° 0.1 mm 6 mps 747 mmHg 92%
    18:00 +10°C° 0.3 mm 6 mps 746 mmHg 93%
    19:00 +11°C° 0.3 mm 7 mps 746 mmHg 93%
    20:00 +11°C° 0.3 mm 7 mps 746 mmHg 94%
    21:00 +11°C° 0.2 mm 7 mps 746 mmHg 94%
    22:00 +11°C° 0.2 mm 7 mps 745 mmHg 94%
    23:00 +12°C° 0.2 mm 7 mps 745 mmHg 95%
    Mostrar más